Regional Weather Roundup
Issued by NWS Green Bay, WI

Home | Current Version | Previous Version | Text Only | Print | Product List | Glossary On
Versions: 1 2 3 4 5 6 7 8 9 10 11 12 13 14 15 16 17 18 19 20 21 22 23 24 25 26 27 28 29 30 31 32 33 34 35 36 37 38 39 40 41 42 43 44 45 46 47 48 49 50
000
ASUS43 KGRB 241601
RWRGRB

NORTH-CENTRAL AND NORTHEAST WISCONSIN REGIONAL WEATHER ROUNDUP
NATIONAL WEATHER SERVICE GREEN BAY WI
1100 AM CDT SUN SEP 24 2017

WIZ005-009-010>012-018-019-241700-
NORTH CENTRAL WISCONSIN

CITY           SKY/WX    TMP DP  RH WIND       PRES   REMARKS
IRONWOOD       SUNNY     82  66  58 S8        30.00S
MANITOWISH WTR NOT AVBL
ARBOR VITAE    NOT AVBL
EAGLE RIVER    NOT AVBL
LAND O LAKES   SUNNY     81  62  53 S7        30.08F
RHINELANDER    SUNNY     82  65  56 SW9       30.07F
PHILLIPS       MOSUNNY   80  65  59 S12       30.03S
ANTIGO         NOT AVBL
TOMAHAWK       NOT AVBL
MERRILL        SUNNY     82  66  57 SW6       30.06F
$$

WIZ013-073-241700-
NORTHEAST WISCONSIN

CITY           SKY/WX    TMP DP  RH WIND       PRES   REMARKS
IRON MOUNTAIN  SUNNY     84  66  54 S7        30.05F
MARINETTE      SUNNY     82  68  62 SW7       30.07S
$$

WIZ017-030-035>037-045-241700-
CENTRAL WISCONSIN

CITY           SKY/WX    TMP DP  RH WIND       PRES   REMARKS
MEDFORD        NOT AVBL
WAUSAU         SUNNY     82  65  56 S6        30.04F
MOSINEE        SUNNY     81  66  61 S7        30.07S
MARSHFIELD     SUNNY     82  62  50 SW10      30.05S
WISC RAPIDS    SUNNY     84  67  56 SW6       30.06S
STEVENS POINT  NOT AVBL
WAUPACA        NOT AVBL
SHAWANO        SUNNY     84  67  55 S6        30.06F
CLINTONVILLE   NOT AVBL
WAUTOMA        SUNNY     83  68  60 S6        30.06F
$$

WIZ038-039-048-051-241700-
FOX VALLEY

CITY           SKY/WX    TMP DP  RH WIND       PRES   REMARKS
NWS GREEN BAY  SUNNY     84  69  60 S8        30.07S
APPLETON       SUNNY     81  63  54 S7        30.06F
OSHKOSH        SUNNY     84  68  58 S9        30.07S
FOND DU LAC    SUNNY     85  64  49 S7        30.08S
$$

WIZ022-050-052-241700-
EAST CENTRAL WISCONSIN

CITY           SKY/WX    TMP DP  RH WIND       PRES   REMARKS
EPHRAIM        FAIR      82  67  62 S6        30.07F
WASHINGTON ISL FAIR      75  68  78 S9        30.07S
STURGEON BAY   SUNNY     84  69  60 S8        30.08S
MANITOWOC      SUNNY     78  70  76 E7        30.08F
SHEBOYGAN      SUNNY     84  71  65 S5        30.08F
$$

LMZ563-521-522-541>543-241700-
LAKESHORE

STATION/POSITION TIME  TEMP    WIND        PRES    VSBY  WAVE
                       AIR SEA DIR/SP/G                  HT/PER
                 (UTC) (F)     (DEG/KT/KT) (MB)    (MI)  (FT/S)
SHEBOYGAN LKSHOR 1500   71     160/ 11/ 12 1018.3F
KEWAUNEE LKSHORE 1530   66     170/  7/  7 1017.9S
NORTHPORT PIER   1540   74     140/  7/  9 1017.9S
N MID LAKE BUOY  1450   69 67  190/ 10/ 12 1019.0F         1
S GREEN BAY BUOY 1530   72 69  220/  4/  4 1018.0S
MENOMINEE LKSHOR 1530   74     160/  6/  7 1017.7F
$$




USA.gov is the U.S. government's official web portal to all federal, state and local government web resources and services.